Time,TemperatureF,DewpointF,PressureIn,WindDirection,WindDirectionDegrees,WindSpeedMPH,WindSpeedGustMPH,Humidity,HourlyPrecipIn,Conditions,Clouds,dailyrainin,SoftwareType,DateUTC
2013-01-24 00:01:00,28.9,19.0,30.24,NW,315,0.0,0.0,66,0.00,,,0.00,Wunderground v.1.15,2013-01-24 05:01:00,
2013-01-24 00:03:00,28.8,18.9,30.24,NW,315,0.0,0.0,66,0.00,,,0.00,Wunderground v.1.15,2013-01-24 05:03:00,
2013-01-24 00:04:00,28.8,18.9,30.24,NW,315,0.0,0.0,66,0.00,,,0.00,Wunderground v.1.15,2013-01-24 05:04:00,
2013-01-24 00:08:00,28.7,18.8,30.24,NW,315,0.0,0.0,66,0.00,,,0.00,Wunderground v.1.15,2013-01-24 05:08:00,
2013-01-24 00:11:00,28.5,18.6,30.24,NW,315,0.0,0.0,66,0.00,,,0.00,Wunderground v.1.15,2013-01-24 05:11:00,
2013-01-24 00:13:00,28.5,18.6,30.24,NW,315,0.0,0.0,66,0.00,,,0.00,Wunderground v.1.15,2013-01-24 05:13:00,
2013-01-24 00:14:00,28.4,18.8,30.24,NW,315,0.0,0.0,67,0.00,,,0.00,Wunderground v.1.15,2013-01-24 05:14:00,
2013-01-24 00:20:00,28.3,18.7,30.24,NW,315,0.0,1.0,67,0.00,,,0.00,Wunderground v.1.15,2013-01-24 05:20:00,
2013-01-24 00:21:00,28.3,18.7,30.24,NW,315,0.0,1.0,67,0.00,,,0.00,Wunderground v.1.15,2013-01-24 05:21:00,
2013-01-24 00:26:00,28.2,18.6,30.25,NW,315,0.0,1.0,67,0.00,,,0.00,Wunderground v.1.15,2013-01-24 05:26:00,
2013-01-24 00:29:00,28.1,18.5,30.25,NW,315,0.0,1.0,67,0.00,,,0.00,Wunderground v.1.15,2013-01-24 05:29:00,
2013-01-24 00:31:00,28.0,18.5,30.25,NW,315,0.0,0.0,67,0.00,,,0.00,Wunderground v.1.15,2013-01-24 05:31:00,
2013-01-24 00:33:00,28.0,18.5,30.25,NW,315,0.0,0.0,67,0.00,,,0.00,Wunderground v.1.15,2013-01-24 05:33:00,
2013-01-24 00:35:00,27.9,18.4,30.25,NW,315,0.0,0.0,67,0.00,,,0.00,Wunderground v.1.15,2013-01-24 05:35:00,
2013-01-24 00:38:00,27.8,18.6,30.25,NW,315,0.0,0.0,68,0.00,,,0.00,Wunderground v.1.15,2013-01-24 05:38:00,
2013-01-24 00:40:00,27.7,18.5,30.25,NW,315,0.0,0.0,68,0.00,,,0.00,Wunderground v.1.15,2013-01-24 05:40:00,
2013-01-24 00:42:00,27.6,18.4,30.25,NW,315,0.0,0.0,68,0.00,,,0.00,Wunderground v.1.15,2013-01-24 05:42:00,
2013-01-24 00:45:00,27.5,18.3,30.25,NW,316,0.0,1.0,68,0.00,,,0.00,Wunderground v.1.15,2013-01-24 05:45:00,
2013-01-24 00:47:00,27.4,18.2,30.25,NW,316,0.0,1.0,68,0.00,,,0.00,Wunderground v.1.15,2013-01-24 05:47:00,
2013-01-24 00:51:00,27.3,18.5,30.25,NW,315,0.0,0.0,69,0.00,,,0.00,Wunderground v.1.15,2013-01-24 05:51:00,
2013-01-24 00:52:00,27.3,18.5,30.26,NW,315,0.0,0.0,69,0.00,,,0.00,Wunderground v.1.15,2013-01-24 05:52:00,
2013-01-24 00:55:00,27.2,18.4,30.26,NW,315,0.0,0.0,69,0.00,,,0.00,Wunderground v.1.15,2013-01-24 05:55:00,
2013-01-24 00:58:00,27.2,18.4,30.26,NW,315,0.0,0.0,69,0.00,,,0.00,Wunderground v.1.15,2013-01-24 05:58:00,
2013-01-24 01:00:00,27.2,18.4,30.26,NW,315,0.0,1.0,69,0.00,,,0.00,Wunderground v.1.15,2013-01-24 06:00:00,
2013-01-24 01:01:00,27.2,18.4,30.26,NW,315,0.0,1.0,69,0.00,,,0.00,Wunderground v.1.15,2013-01-24 06:01:00,
2013-01-24 01:04:00,27.2,18.0,30.26,NW,316,0.0,1.0,68,0.00,,,0.00,Wunderground v.1.15,2013-01-24 06:04:00,
2013-01-24 01:07:00,27.0,18.2,30.26,NW,316,0.0,1.0,69,0.00,,,0.00,Wunderground v.1.15,2013-01-24 06:07:00,
2013-01-24 01:08:00,27.0,18.2,30.26,NW,315,0.0,1.0,69,0.00,,,0.00,Wunderground v.1.15,2013-01-24 06:08:00,
2013-01-24 01:09:00,27.0,18.2,30.26,NW,316,0.0,1.0,69,0.00,,,0.00,Wunderground v.1.15,2013-01-24 06:09:00,
2013-01-24 01:14:00,26.8,18.0,30.26,NW,316,0.0,2.0,69,0.00,,,0.00,Wunderground v.1.15,2013-01-24 06:14:00,
2013-01-24 01:15:00,26.9,18.1,30.26,NW,315,0.0,2.0,69,0.00,,,0.00,Wunderground v.1.15,2013-01-24 06:15:00,
2013-01-24 01:17:00,26.8,18.0,30.26,NW,316,0.0,2.0,69,0.00,,,0.00,Wunderground v.1.15,2013-01-24 06:17:00,
2013-01-24 01:20:00,26.8,18.0,30.26,NW,315,0.0,0.0,69,0.00,,,0.00,Wunderground v.1.15,2013-01-24 06:20:00,
2013-01-24 01:21:00,26.8,18.0,30.26,NW,315,0.0,2.0,69,0.00,,,0.00,Wunderground v.1.15,2013-01-24 06:21:00,
2013-01-24 01:24:00,26.8,17.6,30.26,NW,315,1.0,3.0,68,0.00,,,0.00,Wunderground v.1.15,2013-01-24 06:24:00,
2013-01-24 01:25:00,26.8,17.6,30.26,NW,315,1.0,3.0,68,0.00,,,0.00,Wunderground v.1.15,2013-01-24 06:25:00,
2013-01-24 01:26:00,26.8,17.6,30.26,NW,315,1.0,3.0,68,0.00,,,0.00,Wunderground v.1.15,2013-01-24 06:26:00,
2013-01-24 01:31:00,26.6,17.5,30.26,NW,315,0.0,1.0,68,0.00,,,0.00,Wunderground v.1.15,2013-01-24 06:31:00,
2013-01-24 01:33:00,26.6,17.5,30.26,NW,315,0.0,1.0,68,0.00,,,0.00,Wunderground v.1.15,2013-01-24 06:33:00,
2013-01-24 01:36:00,26.6,17.8,30.26,WNW,293,0.0,3.0,69,0.00,,,0.00,Wunderground v.1.15,2013-01-24 06:36:00,
2013-01-24 01:38:00,26.6,17.8,30.27,NW,306,1.0,3.0,69,0.00,,,0.00,Wunderground v.1.15,2013-01-24 06:38:00,
2013-01-24 01:39:00,26.6,17.8,30.27,NW,305,1.0,1.0,69,0.00,,,0.00,Wunderground v.1.15,2013-01-24 06:39:00,
2013-01-24 01:41:00,26.6,17.8,30.27,NW,305,1.0,1.0,69,0.00,,,0.00,Wunderground v.1.15,2013-01-24 06:41:00,
2013-01-24 01:44:00,26.5,17.7,30.27,NW,304,1.0,3.0,69,0.00,,,0.00,Wunderground v.1.15,2013-01-24 06:44:00,
2013-01-24 01:48:00,26.5,17.7,30.27,NW,304,1.0,3.0,69,0.00,,,0.00,Wunderground v.1.15,2013-01-24 06:48:00,
2013-01-24 01:49:00,26.5,17.7,30.27,NW,304,1.0,3.0,69,0.00,,,0.00,Wunderground v.1.15,2013-01-24 06:49:00,
2013-01-24 01:50:00,26.5,17.4,30.27,NW,304,2.0,2.0,68,0.00,,,0.00,Wunderground v.1.15,2013-01-24 06:50:00,
2013-01-24 01:51:00,26.5,17.4,30.27,NW,304,2.0,2.0,68,0.00,,,0.00,Wunderground v.1.15,2013-01-24 06:51:00,
2013-01-24 01:56:00,26.4,17.6,30.27,WNW,299,1.0,2.0,69,0.00,,,0.00,Wunderground v.1.15,2013-01-24 06:56:00,
2013-01-24 01:58:00,26.4,17.6,30.27,WNW,300,2.0,3.0,69,0.00,,,0.00,Wunderground v.1.15,2013-01-24 06:58:00,
2013-01-24 02:00:00,26.5,17.7,30.27,WNW,301,2.0,3.0,69,0.00,,,0.00,Wunderground v.1.15,2013-01-24 07:00:00,
2013-01-24 02:03:00,26.5,17.7,30.28,WNW,301,2.0,3.0,69,0.00,,,0.00,Wunderground v.1.15,2013-01-24 07:03:00,
2013-01-24 02:05:00,26.5,17.7,30.28,WNW,301,2.0,3.0,69,0.00,,,0.00,Wunderground v.1.15,2013-01-24 07:05:00,
2013-01-24 02:09:00,26.5,17.7,30.28,WNW,302,1.0,3.0,69,0.00,,,0.00,Wunderground v.1.15,2013-01-24 07:09:00,
2013-01-24 02:12:00,26.4,17.6,30.28,NW,306,1.0,3.0,69,0.00,,,0.00,Wunderground v.1.15,2013-01-24 07:12:00,
2013-01-24 02:16:00,26.5,17.7,30.28,NW,306,2.0,4.0,69,0.00,,,0.00,Wunderground v.1.15,2013-01-24 07:16:00,
2013-01-24 02:17:00,26.5,17.7,30.28,NW,309,2.0,4.0,69,0.00,,,0.00,Wunderground v.1.15,2013-01-24 07:17:00,
2013-01-24 02:18:00,26.6,17.8,30.29,NW,308,2.0,4.0,69,0.00,,,0.00,Wunderground v.1.15,2013-01-24 07:18:00,
2013-01-24 02:22:00,26.6,17.8,30.29,WNW,295,3.0,6.0,69,0.00,,,0.00,Wunderground v.1.15,2013-01-24 07:22:00,
2013-01-24 02:26:00,26.6,18.1,30.29,NW,326,3.0,6.0,70,0.00,,,0.00,Wunderground v.1.15,2013-01-24 07:26:00,
2013-01-24 02:29:00,26.4,17.9,30.29,NW,311,3.0,6.0,70,0.00,,,0.00,Wunderground v.1.15,2013-01-24 07:29:00,
2013-01-24 02:32:00,26.3,17.8,30.29,WNW,291,4.0,5.0,70,0.00,,,0.00,Wunderground v.1.15,2013-01-24 07:32:00,
2013-01-24 02:36:00,26.1,18.0,30.29,NW,310,4.0,5.0,71,0.00,,,0.00,Wunderground v.1.15,2013-01-24 07:36:00,
2013-01-24 02:38:00,26.1,18.0,30.29,NW,319,4.0,5.0,71,0.00,,,0.00,Wunderground v.1.15,2013-01-24 07:38:00,
2013-01-24 02:39:00,26.0,17.9,30.29,NW,307,4.0,5.0,71,0.00,,,0.00,Wunderground v.1.15,2013-01-24 07:39:00,
2013-01-24 02:41:00,26.1,18.3,30.30,NNW,331,4.0,7.0,72,0.00,,,0.00,Wunderground v.1.15,2013-01-24 07:41:00,
2013-01-24 02:43:00,26.1,18.3,30.30,NW,317,4.0,7.0,72,0.00,,,0.00,Wunderground v.1.15,2013-01-24 07:43:00,
2013-01-24 02:44:00,26.1,18.3,30.30,NW,323,4.0,7.0,72,0.00,,,0.00,Wunderground v.1.15,2013-01-24 07:44:00,
2013-01-24 02:48:00,26.1,18.3,30.30,NNW,333,4.0,7.0,72,0.00,,,0.00,Wunderground v.1.15,2013-01-24 07:48:00,
2013-01-24 02:49:00,26.2,18.4,30.30,WNW,300,4.0,7.0,72,0.00,,,0.00,Wunderground v.1.15,2013-01-24 07:49:00,
2013-01-24 02:54:00,26.5,18.7,30.31,NNW,336,5.0,8.0,72,0.00,,,0.00,Wunderground v.1.15,2013-01-24 07:54:00,
2013-01-24 02:57:00,26.6,18.8,30.31,NW,326,6.0,9.0,72,0.00,,,0.00,Wunderground v.1.15,2013-01-24 07:57:00,
2013-01-24 02:59:00,26.6,18.8,30.31,NNW,329,6.0,9.0,72,0.00,,,0.00,Wunderground v.1.15,2013-01-24 07:59:00,
2013-01-24 03:00:00,26.6,18.8,30.32,NW,319,6.0,8.0,72,0.00,,,0.00,Wunderground v.1.15,2013-01-24 08:00:00,
2013-01-24 03:03:00,26.7,18.9,30.32,NNW,338,6.0,9.0,72,0.00,,,0.00,Wunderground v.1.15,2013-01-24 08:03:00,
2013-01-24 03:06:00,26.8,19.0,30.32,NNW,327,7.0,9.0,72,0.00,,,0.00,Wunderground v.1.15,2013-01-24 08:06:00,
2013-01-24 03:07:00,26.8,19.0,30.32,NW,320,7.0,9.0,72,0.00,,,0.00,Wunderground v.1.15,2013-01-24 08:07:00,
2013-01-24 03:09:00,26.8,19.0,30.32,NNW,335,7.0,9.0,72,0.00,,,0.00,Wunderground v.1.15,2013-01-24 08:09:00,
2013-01-24 03:13:00,26.8,19.0,30.33,NW,325,7.0,9.0,72,0.00,,,0.00,Wunderground v.1.15,2013-01-24 08:13:00,
2013-01-24 03:14:00,26.8,19.0,30.33,NW,322,7.0,11.0,72,0.00,,,0.00,Wunderground v.1.15,2013-01-24 08:14:00,
2013-01-24 03:16:00,26.7,18.9,30.33,NNW,339,7.0,11.0,72,0.00,,,0.00,Wunderground v.1.15,2013-01-24 08:16:00,
2013-01-24 03:19:00,26.7,18.9,30.33,North,355,8.0,11.0,72,0.00,,,0.00,Wunderground v.1.15,2013-01-24 08:19:00,
2013-01-24 03:21:00,26.7,18.9,30.33,North,10,8.0,9.0,72,0.00,,,0.00,Wunderground v.1.15,2013-01-24 08:21:00,
2013-01-24 03:22:00,26.6,19.1,30.33,NNW,344,8.0,9.0,73,0.00,,,0.00,Wunderground v.1.15,2013-01-24 08:22:00,
2013-01-24 03:23:00,26.6,19.1,30.33,North,355,8.0,9.0,73,0.00,,,0.00,Wunderground v.1.15,2013-01-24 08:23:00,
2013-01-24 03:28:00,26.4,18.9,30.34,NNW,347,8.0,15.0,73,0.00,,,0.00,Wunderground v.1.15,2013-01-24 08:28:00,
2013-01-24 03:29:00,26.3,18.8,30.34,North,11,9.0,15.0,73,0.00,,,0.00,Wunderground v.1.15,2013-01-24 08:29:00,
2013-01-24 03:30:00,26.3,18.8,30.34,North,355,8.0,8.0,73,0.00,,,0.00,Wunderground v.1.15,2013-01-24 08:30:00,
2013-01-24 03:31:00,26.2,18.7,30.34,NNE,22,8.0,8.0,73,0.00,,,0.00,Wunderground v.1.15,2013-01-24 08:31:00,
2013-01-24 03:37:00,25.9,18.7,30.34,NE,41,7.0,8.0,74,0.00,,,0.00,Wunderground v.1.15,2013-01-24 08:37:00,
2013-01-24 03:38:00,25.7,18.6,30.35,NNW,336,7.0,9.0,74,0.00,,,0.00,Wunderground v.1.15,2013-01-24 08:38:00,
2013-01-24 03:39:00,25.7,18.6,30.35,NNE,21,7.0,11.0,74,0.00,,,0.00,Wunderground v.1.15,2013-01-24 08:39:00,
2013-01-24 03:40:00,25.7,18.9,30.35,NNE,22,7.0,7.0,75,0.00,,,0.00,Wunderground v.1.15,2013-01-24 08:40:00,
2013-01-24 03:42:00,25.7,18.9,30.35,North,360,7.0,7.0,75,0.00,,,0.00,Wunderground v.1.15,2013-01-24 08:42:00,
2013-01-24 03:45:00,25.6,18.5,30.36,North,10,7.0,12.0,74,0.00,,,0.00,Wunderground v.1.15,2013-01-24 08:45:00,
2013-01-24 03:48:00,25.6,18.1,30.36,NE,49,8.0,13.0,73,0.00,,,0.00,Wunderground v.1.15,2013-01-24 08:48:00,
2013-01-24 03:52:00,25.5,17.4,30.37,ENE,63,9.0,12.0,71,0.00,,,0.00,Wunderground v.1.15,2013-01-24 08:52:00,
2013-01-24 03:53:00,25.4,17.3,30.37,ENE,63,9.0,16.0,71,0.00,,,0.00,Wunderground v.1.15,2013-01-24 08:53:00,
2013-01-24 03:57:00,25.2,17.1,30.37,ENE,61,10.0,16.0,71,0.00,,,0.00,Wunderground v.1.15,2013-01-24 08:57:00,
2013-01-24 03:58:00,25.2,17.1,30.37,North,360,9.0,16.0,71,0.00,,,0.00,Wunderground v.1.15,2013-01-24 08:58:00,
2013-01-24 04:00:00,25.0,16.9,30.38,North,355,10.0,10.0,71,0.00,,,0.00,Wunderground v.1.15,2013-01-24 09:00:00,
2013-01-24 04:02:00,24.9,16.8,30.38,NE,38,9.0,12.0,71,0.00,,,0.00,Wunderground v.1.15,2013-01-24 09:02:00,
2013-01-24 04:03:00,24.8,16.7,30.38,East,79,9.0,15.0,71,0.00,,,0.00,Wunderground v.1.15,2013-01-24 09:03:00,
2013-01-24 04:07:00,24.6,16.2,30.38,North,360,8.0,15.0,70,0.00,,,0.00,Wunderground v.1.15,2013-01-24 09:07:00,
2013-01-24 04:09:00,24.5,16.1,30.38,North,355,7.0,15.0,70,0.00,,,0.00,Wunderground v.1.15,2013-01-24 09:09:00,
2013-01-24 04:10:00,24.4,15.7,30.38,NE,45,8.0,12.0,69,0.00,,,0.00,Wunderground v.1.15,2013-01-24 09:10:00,
2013-01-24 04:13:00,24.2,15.5,30.39,NE,41,9.0,12.0,69,0.00,,,0.00,Wunderground v.1.15,2013-01-24 09:13:00,
2013-01-24 04:16:00,24.0,15.0,30.39,ENE,58,9.0,12.0,68,0.00,,,0.00,Wunderground v.1.15,2013-01-24 09:16:00,
2013-01-24 04:17:00,24.0,15.0,30.39,North,351,9.0,15.0,68,0.00,,,0.00,Wunderground v.1.15,2013-01-24 09:17:00,
2013-01-24 04:19:00,23.9,14.5,30.39,NE,49,10.0,15.0,67,0.00,,,0.00,Wunderground v.1.15,2013-01-24 09:19:00,
2013-01-24 04:21:00,23.7,14.0,30.40,North,355,10.0,13.0,66,0.00,,,0.00,Wunderground v.1.15,2013-01-24 09:21:00,
2013-01-24 04:24:00,23.6,13.5,30.40,NNW,338,9.0,16.0,65,0.00,,,0.00,Wunderground v.1.15,2013-01-24 09:24:00,
2013-01-24 04:25:00,23.5,13.5,30.40,NE,46,9.0,16.0,65,0.00,,,0.00,Wunderground v.1.15,2013-01-24 09:25:00,
2013-01-24 04:28:00,23.3,13.3,30.40,ENE,74,9.0,16.0,65,0.00,,,0.00,Wunderground v.1.15,2013-01-24 09:28:00,
2013-01-24 04:30:00,23.1,12.7,30.40,NNE,26,8.0,20.0,64,0.00,,,0.00,Wunderground v.1.15,2013-01-24 09:30:00,
2013-01-24 04:32:00,23.1,12.7,30.40,NNE,26,9.0,20.0,64,0.00,,,0.00,Wunderground v.1.15,2013-01-24 09:32:00,
2013-01-24 04:35:00,22.9,12.2,30.40,NE,42,9.0,20.0,63,0.00,,,0.00,Wunderground v.1.15,2013-01-24 09:35:00,
2013-01-24 04:37:00,22.8,12.1,30.41,North,9,8.0,20.0,63,0.00,,,0.00,Wunderground v.1.15,2013-01-24 09:37:00,
2013-01-24 04:38:00,22.8,12.1,30.41,ENE,57,8.0,20.0,63,0.00,,,0.00,Wunderground v.1.15,2013-01-24 09:38:00,
2013-01-24 04:39:00,22.7,11.6,30.41,ENE,62,7.0,23.0,62,0.00,,,0.00,Wunderground v.1.15,2013-01-24 09:39:00,
2013-01-24 04:41:00,22.6,11.5,30.41,NNE,13,8.0,12.0,62,0.00,,,0.00,Wunderground v.1.15,2013-01-24 09:41:00,
2013-01-24 04:44:00,22.5,11.4,30.41,North,355,7.0,12.0,62,0.00,,,0.00,Wunderground v.1.15,2013-01-24 09:44:00,
2013-01-24 04:46:00,22.4,11.3,30.42,NE,55,7.0,12.0,62,0.00,,,0.00,Wunderground v.1.15,2013-01-24 09:46:00,
2013-01-24 04:48:00,22.4,11.0,30.42,NNW,342,7.0,12.0,61,0.00,,,0.00,Wunderground v.1.15,2013-01-24 09:48:00,
2013-01-24 04:51:00,22.2,10.8,30.42,NE,35,7.0,12.0,61,0.00,,,0.00,Wunderground v.1.15,2013-01-24 09:51:00,
2013-01-24 04:54:00,22.1,10.7,30.42,NE,44,7.0,16.0,61,0.00,,,0.00,Wunderground v.1.15,2013-01-24 09:54:00,
2013-01-24 04:56:00,22.0,10.6,30.42,North,5,6.0,16.0,61,0.00,,,0.00,Wunderground v.1.15,2013-01-24 09:56:00,
2013-01-24 04:58:00,21.9,10.9,30.42,NE,47,7.0,16.0,62,0.00,,,0.00,Wunderground v.1.15,2013-01-24 09:58:00,
2013-01-24 05:02:00,21.8,10.4,30.43,NNE,28,7.0,19.0,61,0.00,,,0.00,Wunderground v.1.15,2013-01-24 10:02:00,
2013-01-24 05:03:00,21.8,10.0,30.43,ENE,71,7.0,19.0,60,0.00,,,0.00,Wunderground v.1.15,2013-01-24 10:03:00,
2013-01-24 05:04:00,21.7,10.3,30.43,NE,42,7.0,19.0,61,0.00,,,0.00,Wunderground v.1.15,2013-01-24 10:04:00,
2013-01-24 05:09:00,21.6,9.8,30.44,NE,40,7.0,19.0,60,0.00,,,0.00,Wunderground v.1.15,2013-01-24 10:09:00,
2013-01-24 05:11:00,21.5,9.7,30.44,ENE,57,8.0,19.0,60,0.00,,,0.00,Wunderground v.1.15,2013-01-24 10:11:00,
2013-01-24 05:16:00,21.4,9.7,30.44,NNW,331,7.0,19.0,60,0.00,,,0.00,Wunderground v.1.15,2013-01-24 10:16:00,
2013-01-24 05:17:00,21.3,9.6,30.44,NE,40,7.0,19.0,60,0.00,,,0.00,Wunderground v.1.15,2013-01-24 10:17:00,
2013-01-24 05:18:00,21.3,9.6,30.44,North,9,7.0,19.0,60,0.00,,,0.00,Wunderground v.1.15,2013-01-24 10:18:00,
2013-01-24 05:20:00,21.2,9.5,30.44,NE,40,7.0,7.0,60,0.00,,,0.00,Wunderground v.1.15,2013-01-24 10:20:00,
2013-01-24 05:21:00,21.2,9.8,30.44,NNW,343,6.0,19.0,61,0.00,,,0.00,Wunderground v.1.15,2013-01-24 10:21:00,
2013-01-24 05:25:00,21.1,9.7,30.45,NE,46,5.0,19.0,61,0.00,,,0.00,Wunderground v.1.15,2013-01-24 10:25:00,
2013-01-24 05:27:00,21.0,9.6,30.45,NE,50,5.0,19.0,61,0.00,,,0.00,Wunderground v.1.15,2013-01-24 10:27:00,
2013-01-24 05:29:00,20.9,9.5,30.45,East,84,5.0,19.0,61,0.00,,,0.00,Wunderground v.1.15,2013-01-24 10:29:00,
2013-01-24 05:31:00,20.9,9.5,30.46,ENE,62,5.0,19.0,61,0.00,,,0.00,Wunderground v.1.15,2013-01-24 10:31:00,
2013-01-24 05:33:00,20.8,9.5,30.45,NE,44,5.0,19.0,61,0.00,,,0.00,Wunderground v.1.15,2013-01-24 10:33:00,
2013-01-24 05:37:00,20.7,9.4,30.46,ENE,67,5.0,19.0,61,0.00,,,0.00,Wunderground v.1.15,2013-01-24 10:37:00,
2013-01-24 05:38:00,20.7,9.4,30.46,North,5,5.0,19.0,61,0.00,,,0.00,Wunderground v.1.15,2013-01-24 10:38:00,
2013-01-24 05:42:00,20.6,9.3,30.46,North,360,4.0,19.0,61,0.00,,,0.00,Wunderground v.1.15,2013-01-24 10:42:00,
2013-01-24 05:43:00,20.5,9.2,30.46,NNE,28,5.0,19.0,61,0.00,,,0.00,Wunderground v.1.15,2013-01-24 10:43:00,
2013-01-24 05:44:00,20.5,9.2,30.46,ENE,57,5.0,19.0,61,0.00,,,0.00,Wunderground v.1.15,2013-01-24 10:44:00,
2013-01-24 05:45:00,20.5,9.2,30.46,NNE,19,5.0,19.0,61,0.00,,,0.00,Wunderground v.1.15,2013-01-24 10:45:00,
2013-01-24 05:49:00,20.4,9.4,30.47,ENE,64,4.0,19.0,62,0.00,,,0.00,Wunderground v.1.15,2013-01-24 10:49:00,
2013-01-24 05:51:00,20.3,9.3,30.47,North,360,4.0,19.0,62,0.00,,,0.00,Wunderground v.1.15,2013-01-24 10:51:00,
2013-01-24 05:52:00,20.3,9.3,30.47,NNE,23,4.0,19.0,62,0.00,,,0.00,Wunderground v.1.15,2013-01-24 10:52:00,
2013-01-24 05:54:00,20.2,9.2,30.47,NE,46,4.0,19.0,62,0.00,,,0.00,Wunderground v.1.15,2013-01-24 10:54:00,
2013-01-24 05:57:00,20.2,9.2,30.47,NNE,17,4.0,19.0,62,0.00,,,0.00,Wunderground v.1.15,2013-01-24 10:57:00,
2013-01-24 05:58:00,20.1,9.5,30.48,NNE,17,3.0,19.0,63,0.00,,,0.00,Wunderground v.1.15,2013-01-24 10:58:00,
2013-01-24 06:01:00,19.9,9.3,30.48,North,5,3.0,3.0,63,0.00,,,0.00,Wunderground v.1.15,2013-01-24 11:01:00,
2013-01-24 06:04:00,19.8,9.2,30.48,NNE,13,2.0,7.0,63,0.00,,,0.00,Wunderground v.1.15,2013-01-24 11:04:00,
2013-01-24 06:05:00,19.8,9.2,30.48,ENE,69,2.0,7.0,63,0.00,,,0.00,Wunderground v.1.15,2013-01-24 11:05:00,
2013-01-24 06:06:00,19.8,9.2,30.48,North,5,2.0,7.0,63,0.00,,,0.00,Wunderground v.1.15,2013-01-24 11:06:00,
2013-01-24 06:10:00,19.8,8.9,30.48,NE,40,4.0,4.0,62,0.00,,,0.00,Wunderground v.1.15,2013-01-24 11:10:00,
2013-01-24 06:11:00,19.8,9.2,30.48,NE,46,4.0,10.0,63,0.00,,,0.00,Wunderground v.1.15,2013-01-24 11:11:00,
2013-01-24 06:13:00,19.7,8.8,30.48,North,350,5.0,10.0,62,0.00,,,0.00,Wunderground v.1.15,2013-01-24 11:13:00,
2013-01-24 06:16:00,19.7,8.8,30.49,NE,46,5.0,10.0,62,0.00,,,0.00,Wunderground v.1.15,2013-01-24 11:16:00,
2013-01-24 06:19:00,19.6,9.0,30.49,ENE,61,5.0,10.0,63,0.00,,,0.00,Wunderground v.1.15,2013-01-24 11:19:00,
2013-01-24 06:20:00,19.5,8.9,30.49,ENE,63,5.0,5.0,63,0.00,,,0.00,Wunderground v.1.15,2013-01-24 11:20:00,
2013-01-24 06:22:00,19.5,8.9,30.49,NNE,32,5.0,5.0,63,0.00,,,0.00,Wunderground v.1.15,2013-01-24 11:22:00,
2013-01-24 06:24:00,19.4,8.8,30.49,NE,38,5.0,6.0,63,0.00,,,0.00,Wunderground v.1.15,2013-01-24 11:24:00,
2013-01-24 06:25:00,19.4,8.8,30.49,NE,37,5.0,6.0,63,0.00,,,0.00,Wunderground v.1.15,2013-01-24 11:25:00,
2013-01-24 06:30:00,19.4,8.8,30.50,North,11,6.0,6.0,63,0.00,,,0.00,Wunderground v.1.15,2013-01-24 11:30:00,
2013-01-24 06:31:00,19.3,8.8,30.50,NE,48,6.0,6.0,63,0.00,,,0.00,Wunderground v.1.15,2013-01-24 11:31:00,
2013-01-24 06:33:00,19.3,8.8,30.50,NNE,20,5.0,6.0,63,0.00,,,0.00,Wunderground v.1.15,2013-01-24 11:33:00,
2013-01-24 06:36:00,19.2,9.0,30.50,East,101,5.0,6.0,64,0.00,,,0.00,Wunderground v.1.15,2013-01-24 11:36:00,
2013-01-24 06:37:00,19.2,9.0,30.50,ENE,73,5.0,7.0,64,0.00,,,0.00,Wunderground v.1.15,2013-01-24 11:37:00,
2013-01-24 06:38:00,19.1,8.9,30.50,NE,46,5.0,7.0,64,0.00,,,0.00,Wunderground v.1.15,2013-01-24 11:38:00,
2013-01-24 06:39:00,19.1,8.9,30.50,NE,46,5.0,7.0,64,0.00,,,0.00,Wunderground v.1.15,2013-01-24 11:39:00,
2013-01-24 06:41:00,19.0,8.8,30.50,ENE,65,4.0,6.0,64,0.00,,,0.00,Wunderground v.1.15,2013-01-24 11:41:00,
2013-01-24 06:43:00,19.0,9.2,30.51,ENE,62,5.0,6.0,65,0.00,,,0.00,Wunderground v.1.15,2013-01-24 11:43:00,
2013-01-24 06:44:00,19.0,9.2,30.51,NE,49,5.0,6.0,65,0.00,,,0.00,Wunderground v.1.15,2013-01-24 11:44:00,
2013-01-24 06:46:00,18.9,9.1,30.51,ENE,64,5.0,6.0,65,0.00,,,0.00,Wunderground v.1.15,2013-01-24 11:46:00,
2013-01-24 06:48:00,18.9,9.1,30.51,NE,55,5.0,8.0,65,0.00,,,0.00,Wunderground v.1.15,2013-01-24 11:48:00,
2013-01-24 06:51:00,18.8,9.0,30.52,North,355,5.0,7.0,65,0.00,,,0.00,Wunderground v.1.15,2013-01-24 11:51:00,
2013-01-24 06:53:00,18.8,9.3,30.52,NNE,31,5.0,7.0,66,0.00,,,0.00,Wunderground v.1.15,2013-01-24 11:53:00,
2013-01-24 06:54:00,18.8,9.3,30.52,NE,49,5.0,10.0,66,0.00,,,0.00,Wunderground v.1.15,2013-01-24 11:54:00,
2013-01-24 06:55:00,18.8,9.3,30.52,NNE,30,5.0,10.0,66,0.00,,,0.00,Wunderground v.1.15,2013-01-24 11:55:00,
2013-01-24 06:59:00,18.8,9.3,30.53,ENE,59,5.0,10.0,66,0.00,,,0.00,Wunderground v.1.15,2013-01-24 11:59:00,
2013-01-24 07:01:00,18.7,9.6,30.53,North,5,5.0,8.0,67,0.00,,,0.00,Wunderground v.1.15,2013-01-24 12:01:00,
2013-01-24 07:04:00,18.6,9.5,30.53,ENE,65,5.0,8.0,67,0.00,,,0.00,Wunderground v.1.15,2013-01-24 12:04:00,
2013-01-24 07:07:00,18.6,9.5,30.53,NE,56,4.0,8.0,67,0.00,,,0.00,Wunderground v.1.15,2013-01-24 12:07:00,
2013-01-24 07:11:00,18.5,9.4,30.53,ENE,64,4.0,9.0,67,0.00,,,0.00,Wunderground v.1.15,2013-01-24 12:11:00,
2013-01-24 07:13:00,18.5,9.7,30.54,North,360,4.0,9.0,68,0.00,,,0.00,Wunderground v.1.15,2013-01-24 12:13:00,
2013-01-24 07:16:00,18.5,9.7,30.54,NNE,13,4.0,9.0,68,0.00,,,0.00,Wunderground v.1.15,2013-01-24 12:16:00,
2013-01-24 07:17:00,18.5,9.7,30.54,ENE,57,4.0,9.0,68,0.00,,,0.00,Wunderground v.1.15,2013-01-24 12:17:00,
2013-01-24 07:18:00,18.4,9.6,30.54,NNE,32,4.0,9.0,68,0.00,,,0.00,Wunderground v.1.15,2013-01-24 12:18:00,
2013-01-24 07:21:00,18.3,9.5,30.54,NNE,28,4.0,5.0,68,0.00,,,0.00,Wunderground v.1.15,2013-01-24 12:21:00,
2013-01-24 07:22:00,18.3,9.5,30.54,NE,47,3.0,5.0,68,0.00,,,0.00,Wunderground v.1.15,2013-01-24 12:22:00,
2013-01-24 07:23:00,18.3,9.5,30.54,NE,46,3.0,7.0,68,0.00,,,0.00,Wunderground v.1.15,2013-01-24 12:23:00,
2013-01-24 07:24:00,18.3,9.5,30.54,NE,50,3.0,7.0,68,0.00,,,0.00,Wunderground v.1.15,2013-01-24 12:24:00,
2013-01-24 07:26:00,18.3,9.8,30.54,ENE,69,3.0,7.0,69,0.00,,,0.00,Wunderground v.1.15,2013-01-24 12:26:00,
2013-01-24 07:29:00,18.2,9.7,30.54,ENE,59,3.0,7.0,69,0.00,,,0.00,Wunderground v.1.15,2013-01-24 12:29:00,
2013-01-24 07:31:00,18.1,9.6,30.54,NE,55,3.0,3.0,69,0.00,,,0.00,Wunderground v.1.15,2013-01-24 12:31:00,
2013-01-24 07:36:00,18.0,9.5,30.55,NE,51,2.0,3.0,69,0.00,,,0.00,Wunderground v.1.15,2013-01-24 12:36:00,
2013-01-24 07:37:00,18.0,9.5,30.55,ENE,61,2.0,5.0,69,0.00,,,0.00,Wunderground v.1.15,2013-01-24 12:37:00,
2013-01-24 07:38:00,18.0,9.5,30.55,NNE,31,2.0,5.0,69,0.00,,,0.00,Wunderground v.1.15,2013-01-24 12:38:00,
2013-01-24 07:43:00,17.9,9.4,30.55,NNE,24,2.0,7.0,69,0.00,,,0.00,Wunderground v.1.15,2013-01-24 12:43:00,
2013-01-24 07:45:00,17.9,9.4,30.55,ENE,67,2.0,7.0,69,0.00,,,0.00,Wunderground v.1.15,2013-01-24 12:45:00,
2013-01-24 07:46:00,17.9,9.4,30.55,NNE,19,3.0,7.0,69,0.00,,,0.00,Wunderground v.1.15,2013-01-24 12:46:00,
2013-01-24 07:48:00,17.9,9.4,30.56,NE,40,3.0,7.0,69,0.00,,,0.00,Wunderground v.1.15,2013-01-24 12:48:00,
2013-01-24 07:49:00,17.8,9.3,30.56,ENE,61,3.0,3.0,69,0.00,,,0.00,Wunderground v.1.15,2013-01-24 12:49:00,
2013-01-24 07:53:00,17.8,9.3,30.56,NE,34,3.0,4.0,69,0.00,,,0.00,Wunderground v.1.15,2013-01-24 12:53:00,
2013-01-24 07:54:00,17.8,9.3,30.56,NE,44,2.0,4.0,69,0.00,,,0.00,Wunderground v.1.15,2013-01-24 12:54:00,
2013-01-24 07:55:00,17.8,9.3,30.56,North,9,2.0,4.0,69,0.00,,,0.00,Wunderground v.1.15,2013-01-24 12:55:00,
2013-01-24 07:58:00,17.8,9.3,30.56,ENE,60,2.0,8.0,69,0.00,,,0.00,Wunderground v.1.15,2013-01-24 12:58:00,
2013-01-24 08:00:00,17.8,9.3,30.56,NE,49,3.0,3.0,69,0.00,,,0.00,Wunderground v.1.15,2013-01-24 13:00:00,
2013-01-24 08:01:00,17.8,9.3,30.56,NE,44,2.0,4.0,69,0.00,,,0.00,Wunderground v.1.15,2013-01-24 13:01:00,
2013-01-24 08:04:00,17.8,9.3,30.56,NE,41,2.0,14.0,69,0.00,,,0.00,Wunderground v.1.15,2013-01-24 13:04:00,
2013-01-24 08:06:00,17.7,9.2,30.56,NE,42,3.0,14.0,69,0.00,,,0.00,Wunderground v.1.15,2013-01-24 13:06:00,
2013-01-24 08:07:00,17.7,9.2,30.56,NE,47,3.0,14.0,69,0.00,,,0.00,Wunderground v.1.15,2013-01-24 13:07:00,
2013-01-24 08:08:00,17.7,9.2,30.56,North,360,2.0,14.0,69,0.00,,,0.00,Wunderground v.1.15,2013-01-24 13:08:00,
2013-01-24 08:11:00,17.7,9.2,30.56,NNE,24,2.0,14.0,69,0.00,,,0.00,Wunderground v.1.15,2013-01-24 13:11:00,
2013-01-24 08:14:00,17.7,9.2,30.57,NE,38,2.0,14.0,69,0.00,,,0.00,Wunderground v.1.15,2013-01-24 13:14:00,
2013-01-24 08:15:00,17.7,9.2,30.57,NE,49,2.0,14.0,69,0.00,,,0.00,Wunderground v.1.15,2013-01-24 13:15:00,
2013-01-24 08:17:00,17.6,9.2,30.56,NNE,28,2.0,14.0,69,0.00,,,0.00,Wunderground v.1.15,2013-01-24 13:17:00,
2013-01-24 08:20:00,17.7,8.3,30.57,ENE,67,3.0,14.0,66,0.00,,,0.00,Wunderground v.1.15,2013-01-24 13:20:00,
2013-01-24 08:23:00,17.8,8.0,30.58,NE,56,3.0,14.0,65,0.00,,,0.00,Wunderground v.1.15,2013-01-24 13:23:00,
2013-01-24 08:26:00,17.9,8.1,30.58,NNW,342,3.0,14.0,65,0.00,,,0.00,Wunderground v.1.15,2013-01-24 13:26:00,
2013-01-24 08:27:00,17.9,8.1,30.58,ENE,59,3.0,14.0,65,0.00,,,0.00,Wunderground v.1.15,2013-01-24 13:27:00,
2013-01-24 08:28:00,17.9,8.1,30.58,NNE,32,3.0,14.0,65,0.00,,,0.00,Wunderground v.1.15,2013-01-24 13:28:00,
2013-01-24 08:32:00,18.0,8.2,30.58,ENE,60,2.0,14.0,65,0.00,,,0.00,Wunderground v.1.15,2013-01-24 13:32:00,
2013-01-24 08:33:00,18.0,7.9,30.57,North,9,2.0,14.0,64,0.00,,,0.00,Wunderground v.1.15,2013-01-24 13:33:00,
2013-01-24 08:36:00,18.0,7.9,30.58,North,11,1.0,14.0,64,0.00,,,0.00,Wunderground v.1.15,2013-01-24 13:36:00,
2013-01-24 08:37:00,18.1,8.0,30.58,ENE,62,1.0,14.0,64,0.00,,,0.00,Wunderground v.1.15,2013-01-24 13:37:00,
2013-01-24 08:39:00,18.1,8.0,30.58,ENE,60,1.0,14.0,64,0.00,,,0.00,Wunderground v.1.15,2013-01-24 13:39:00,
2013-01-24 08:42:00,18.2,8.1,30.58,North,360,2.0,14.0,64,0.00,,,0.00,Wunderground v.1.15,2013-01-24 13:42:00,
2013-01-24 08:45:00,18.2,8.4,30.58,NNE,30,1.0,14.0,65,0.00,,,0.00,Wunderground v.1.15,2013-01-24 13:45:00,
2013-01-24 08:46:00,18.2,8.4,30.58,NE,47,1.0,14.0,65,0.00,,,0.00,Wunderground v.1.15,2013-01-24 13:46:00,
2013-01-24 08:47:00,18.3,8.5,30.58,NNW,348,1.0,14.0,65,0.00,,,0.00,Wunderground v.1.15,2013-01-24 13:47:00,
2013-01-24 08:48:00,18.3,8.5,30.58,NNE,21,1.0,14.0,65,0.00,,,0.00,Wunderground v.1.15,2013-01-24 13:48:00,
2013-01-24 08:50:00,18.3,8.5,30.58,NE,37,1.0,1.0,65,0.00,,,0.00,Wunderground v.1.15,2013-01-24 13:50:00,
2013-01-24 08:51:00,18.3,8.5,30.58,NNW,348,0.0,6.0,65,0.00,,,0.00,Wunderground v.1.15,2013-01-24 13:51:00,
2013-01-24 08:53:00,18.3,8.1,30.58,NNE,22,1.0,14.0,64,0.00,,,0.00,Wunderground v.1.15,2013-01-24 13:53:00,
2013-01-24 08:56:00,18.4,8.2,30.58,NNE,17,2.0,14.0,64,0.00,,,0.00,Wunderground v.1.15,2013-01-24 13:56:00,
2013-01-24 08:57:00,18.4,7.9,30.59,North,351,2.0,14.0,63,0.00,,,0.00,Wunderground v.1.15,2013-01-24 13:57:00,
2013-01-24 08:59:00,18.4,7.9,30.59,ENE,65,2.0,14.0,63,0.00,,,0.00,Wunderground v.1.15,2013-01-24 13:59:00,
2013-01-24 09:00:00,18.5,7.6,30.59,NE,37,3.0,5.0,62,0.00,,,0.00,Wunderground v.1.15,2013-01-24 14:00:00,
2013-01-24 09:04:00,18.6,7.4,30.59,NE,53,3.0,7.0,61,0.00,,,0.00,Wunderground v.1.15,2013-01-24 14:04:00,
2013-01-24 09:06:00,18.6,7.0,30.59,NE,34,4.0,7.0,60,0.00,,,0.00,Wunderground v.1.15,2013-01-24 14:06:00,
2013-01-24 09:07:00,18.7,7.5,30.59,NE,46,4.0,7.0,61,0.00,,,0.00,Wunderground v.1.15,2013-01-24 14:07:00,
2013-01-24 09:09:00,18.8,7.2,30.59,NE,47,4.0,7.0,60,0.00,,,0.00,Wunderground v.1.15,2013-01-24 14:09:00,
2013-01-24 09:12:00,18.9,6.9,30.60,NE,56,3.0,7.0,59,0.00,,,0.00,Wunderground v.1.15,2013-01-24 14:12:00,
2013-01-24 09:13:00,18.9,6.9,30.59,NE,34,4.0,7.0,59,0.00,,,0.00,Wunderground v.1.15,2013-01-24 14:13:00,
2013-01-24 09:15:00,19.0,7.0,30.60,ENE,60,3.0,7.0,59,0.00,,,0.00,Wunderground v.1.15,2013-01-24 14:15:00,
2013-01-24 09:17:00,19.1,7.5,30.60,NE,56,3.0,7.0,60,0.00,,,0.00,Wunderground v.1.15,2013-01-24 14:17:00,
2013-01-24 09:18:00,19.1,6.7,30.60,NE,54,3.0,7.0,58,0.00,,,0.00,Wunderground v.1.15,2013-01-24 14:18:00,
2013-01-24 09:19:00,19.2,6.8,30.60,SE,125,3.0,7.0,58,0.00,,,0.00,Wunderground v.1.15,2013-01-24 14:19:00,
2013-01-24 09:23:00,19.4,6.2,30.59,North,360,4.0,7.0,56,0.00,,,0.00,Wunderground v.1.15,2013-01-24 14:23:00,
2013-01-24 09:25:00,19.4,6.6,30.60,NE,39,4.0,7.0,57,0.00,,,0.00,Wunderground v.1.15,2013-01-24 14:25:00,
2013-01-24 09:26:00,19.4,6.6,30.59,ENE,76,4.0,7.0,57,0.00,,,0.00,Wunderground v.1.15,2013-01-24 14:26:00,
2013-01-24 09:27:00,19.4,5.8,30.60,ENE,59,4.0,7.0,55,0.00,,,0.00,Wunderground v.1.15,2013-01-24 14:27:00,
2013-01-24 09:30:00,19.4,6.2,30.60,NNE,23,4.0,4.0,56,0.00,,,0.00,Wunderground v.1.15,2013-01-24 14:30:00,
2013-01-24 09:31:00,19.4,6.2,30.60,ESE,107,3.0,4.0,56,0.00,,,0.00,Wunderground v.1.15,2013-01-24 14:31:00,
2013-01-24 09:32:00,19.5,6.7,30.60,ENE,70,3.0,4.0,57,0.00,,,0.00,Wunderground v.1.15,2013-01-24 14:32:00,
2013-01-24 09:33:00,19.5,6.3,30.60,ENE,66,2.0,4.0,56,0.00,,,0.00,Wunderground v.1.15,2013-01-24 14:33:00,
2013-01-24 09:38:00,19.6,6.4,30.60,ENE,78,2.0,5.0,56,0.00,,,0.00,Wunderground v.1.15,2013-01-24 14:38:00,
2013-01-24 09:39:00,19.6,6.0,30.60,ENE,74,2.0,7.0,55,0.00,,,0.00,Wunderground v.1.15,2013-01-24 14:39:00,
2013-01-24 09:42:00,19.5,5.1,30.61,ENE,72,3.0,10.0,53,0.00,,,0.00,Wunderground v.1.15,2013-01-24 14:42:00,
2013-01-24 09:44:00,19.4,5.4,30.61,NNE,31,4.0,10.0,54,0.00,,,0.00,Wunderground v.1.15,2013-01-24 14:44:00,
2013-01-24 09:45:00,19.5,5.5,30.61,East,90,4.0,10.0,54,0.00,,,0.00,Wunderground v.1.15,2013-01-24 14:45:00,
2013-01-24 09:46:00,19.5,5.1,30.61,ENE,58,4.0,10.0,53,0.00,,,0.00,Wunderground v.1.15,2013-01-24 14:46:00,
2013-01-24 09:47:00,19.5,4.7,30.62,ENE,71,5.0,10.0,52,0.00,,,0.00,Wunderground v.1.15,2013-01-24 14:47:00,
2013-01-24 09:51:00,19.5,4.3,30.62,East,96,5.0,6.0,51,0.00,,,0.00,Wunderground v.1.15,2013-01-24 14:51:00,
2013-01-24 09:52:00,19.5,4.3,30.62,East,79,5.0,6.0,51,0.00,,,0.00,Wunderground v.1.15,2013-01-24 14:52:00,
2013-01-24 09:54:00,19.5,4.7,30.61,East,84,5.0,6.0,52,0.00,,,0.00,Wunderground v.1.15,2013-01-24 14:54:00,
2013-01-24 09:56:00,19.6,4.4,30.62,ENE,66,5.0,6.0,51,0.00,,,0.00,Wunderground v.1.15,2013-01-24 14:56:00,
2013-01-24 09:57:00,19.7,4.9,30.62,ENE,62,4.0,9.0,52,0.00,,,0.00,Wunderground v.1.15,2013-01-24 14:57:00,
2013-01-24 09:59:00,19.7,4.0,30.62,ENE,71,4.0,12.0,50,0.00,,,0.00,Wunderground v.1.15,2013-01-24 14:59:00,
2013-01-24 10:01:00,19.5,3.0,30.62,ENE,59,5.0,10.0,48,0.00,,,0.00,Wunderground v.1.15,2013-01-24 15:01:00,
2013-01-24 10:04:00,19.3,2.8,30.62,ENE,71,6.0,10.0,48,0.00,,,0.00,Wunderground v.1.15,2013-01-24 15:04:00,
2013-01-24 10:06:00,19.3,2.8,30.62,East,82,7.0,10.0,48,0.00,,,0.00,Wunderground v.1.15,2013-01-24 15:06:00,
2013-01-24 10:08:00,19.3,2.8,30.62,ENE,65,7.0,10.0,48,0.00,,,0.00,Wunderground v.1.15,2013-01-24 15:08:00,
2013-01-24 10:12:00,19.6,3.5,30.63,ENE,74,5.0,8.0,49,0.00,,,0.00,Wunderground v.1.15,2013-01-24 15:12:00,
2013-01-24 10:15:00,19.8,3.2,30.63,NE,50,5.0,8.0,48,0.00,,,0.00,Wunderground v.1.15,2013-01-24 15:15:00,
2013-01-24 19:41:00,20.7,5.0,30.61,ENE,78,0.0,0.0,50,0.00,,,0.00,Wunderground v.1.15,2013-01-25 00:41:00,
2013-01-24 19:42:00,20.7,5.0,30.61,ESE,117,0.0,2.0,50,0.00,,,0.00,Wunderground v.1.15,2013-01-25 00:42:00,
2013-01-24 19:47:00,20.7,5.0,30.62,East,82,0.0,4.0,50,0.00,,,0.00,Wunderground v.1.15,2013-01-25 00:47:00,
2013-01-24 19:48:00,20.6,4.9,30.62,East,90,0.0,4.0,50,0.00,,,0.00,Wunderground v.1.15,2013-01-25 00:48:00,
2013-01-24 19:49:00,20.6,4.9,30.62,East,90,0.0,4.0,50,0.00,,,0.00,Wunderground v.1.15,2013-01-25 00:49:00,
2013-01-24 19:50:00,20.6,4.9,30.61,East,88,0.0,4.0,50,0.00,,,0.00,Wunderground v.1.15,2013-01-25 00:50:00,
2013-01-24 19:52:00,20.6,4.9,30.61,ENE,76,0.0,0.0,50,0.00,,,0.00,Wunderground v.1.15,2013-01-25 00:52:00,
2013-01-24 19:55:00,20.6,4.9,30.62,ENE,67,0.0,2.0,50,0.00,,,0.00,Wunderground v.1.15,2013-01-25 00:55:00,
2013-01-24 19:57:00,20.6,4.9,30.61,ENE,60,0.0,2.0,50,0.00,,,0.00,Wunderground v.1.15,2013-01-25 00:57:00,
2013-01-24 19:59:00,20.5,5.2,30.61,East,95,0.0,2.0,51,0.00,,,0.00,Wunderground v.1.15,2013-01-25 00:59:00,
2013-01-24 20:03:00,20.5,5.2,30.60,East,95,0.0,2.0,51,0.00,,,0.00,Wunderground v.1.15,2013-01-25 01:03:00,
2013-01-24 20:05:00,20.4,5.1,30.61,ENE,77,1.0,3.0,51,0.00,,,0.00,Wunderground v.1.15,2013-01-25 01:05:00,
2013-01-24 20:06:00,20.4,5.1,30.61,East,81,1.0,3.0,51,0.00,,,0.00,Wunderground v.1.15,2013-01-25 01:06:00,
2013-01-24 20:07:00,20.4,5.1,30.61,East,90,1.0,3.0,51,0.00,,,0.00,Wunderground v.1.15,2013-01-25 01:07:00,
2013-01-24 20:11:00,20.3,5.0,30.60,East,96,0.0,2.0,51,0.00,,,0.00,Wunderground v.1.15,2013-01-25 01:11:00,
2013-01-24 20:12:00,20.3,5.0,30.60,East,79,0.0,2.0,51,0.00,,,0.00,Wunderground v.1.15,2013-01-25 01:12:00,
2013-01-24 20:13:00,20.3,5.5,30.60,ESE,109,0.0,2.0,52,0.00,,,0.00,Wunderground v.1.15,2013-01-25 01:13:00,
2013-01-24 20:18:00,20.3,5.5,30.60,East,80,0.0,2.0,52,0.00,,,0.00,Wunderground v.1.15,2013-01-25 01:18:00,
2013-01-24 20:19:00,20.3,5.5,30.60,ESE,107,0.0,2.0,52,0.00,,,0.00,Wunderground v.1.15,2013-01-25 01:19:00,
2013-01-24 20:22:00,20.2,5.4,30.60,ESE,114,0.0,2.0,52,0.00,,,0.00,Wunderground v.1.15,2013-01-25 01:22:00,
2013-01-24 20:23:00,20.2,5.4,30.60,ESE,104,0.0,2.0,52,0.00,,,0.00,Wunderground v.1.15,2013-01-25 01:23:00,
2013-01-24 20:26:00,20.2,5.4,30.60,ENE,61,0.0,4.0,52,0.00,,,0.00,Wunderground v.1.15,2013-01-25 01:26:00,
2013-01-24 20:28:00,20.2,5.4,30.60,ESE,104,0.0,4.0,52,0.00,,,0.00,Wunderground v.1.15,2013-01-25 01:28:00,
2013-01-24 20:29:00,20.2,5.4,30.60,East,94,0.0,4.0,52,0.00,,,0.00,Wunderground v.1.15,2013-01-25 01:29:00,
2013-01-24 20:33:00,20.2,5.4,30.60,ENE,74,0.0,2.0,52,0.00,,,0.00,Wunderground v.1.15,2013-01-25 01:33:00,
2013-01-24 20:35:00,20.2,5.4,30.59,East,81,0.0,2.0,52,0.00,,,0.00,Wunderground v.1.15,2013-01-25 01:35:00,
2013-01-24 20:36:00,20.2,5.8,30.60,ENE,66,0.0,2.0,53,0.00,,,0.00,Wunderground v.1.15,2013-01-25 01:36:00,
2013-01-24 20:38:00,20.2,5.4,30.59,East,99,0.0,2.0,52,0.00,,,0.00,Wunderground v.1.15,2013-01-25 01:38:00,
2013-01-24 20:39:00,20.2,5.8,30.59,East,88,0.0,0.0,53,0.00,,,0.00,Wunderground v.1.15,2013-01-25 01:39:00,
2013-01-24 20:42:00,20.2,5.4,30.59,East,98,0.0,0.0,52,0.00,,,0.00,Wunderground v.1.15,2013-01-25 01:42:00,
2013-01-24 20:43:00,20.2,5.8,30.59,ESE,103,0.0,2.0,53,0.00,,,0.00,Wunderground v.1.15,2013-01-25 01:43:00,
2013-01-24 20:46:00,20.2,5.4,30.59,East,92,0.0,2.0,52,0.00,,,0.00,Wunderground v.1.15,2013-01-25 01:46:00,
2013-01-24 20:47:00,20.2,5.4,30.59,SE,125,0.0,2.0,52,0.00,,,0.00,Wunderground v.1.15,2013-01-25 01:47:00,
2013-01-24 20:49:00,20.2,5.8,30.59,East,98,0.0,2.0,53,0.00,,,0.00,Wunderground v.1.15,2013-01-25 01:49:00,
2013-01-24 20:51:00,20.2,5.8,30.58,ESE,103,0.0,0.0,53,0.00,,,0.00,Wunderground v.1.15,2013-01-25 01:51:00,
2013-01-24 20:52:00,20.2,5.8,30.59,ESE,113,0.0,0.0,53,0.00,,,0.00,Wunderground v.1.15,2013-01-25 01:52:00,
2013-01-24 20:55:00,20.2,5.8,30.58,ESE,103,0.0,2.0,53,0.00,,,0.00,Wunderground v.1.15,2013-01-25 01:55:00,
2013-01-24 20:56:00,20.2,5.4,30.58,ESE,106,0.0,2.0,52,0.00,,,0.00,Wunderground v.1.15,2013-01-25 01:56:00,
2013-01-24 20:58:00,20.3,5.5,30.58,ESE,107,0.0,2.0,52,0.00,,,0.00,Wunderground v.1.15,2013-01-25 01:58:00,
2013-01-24 21:00:00,20.3,5.9,30.59,ESE,103,0.0,0.0,53,0.00,,,0.00,Wunderground v.1.15,2013-01-25 02:00:00,
2013-01-24 21:03:00,20.3,5.9,30.59,ESE,102,0.0,1.0,53,0.00,,,0.00,Wunderground v.1.15,2013-01-25 02:03:00,
2013-01-24 21:04:00,20.3,5.9,30.59,ESE,103,0.0,1.0,53,0.00,,,0.00,Wunderground v.1.15,2013-01-25 02:04:00,
2013-01-24 21:06:00,20.3,5.9,30.59,ESE,105,0.0,1.0,53,0.00,,,0.00,Wunderground v.1.15,2013-01-25 02:06:00,
2013-01-24 21:08:00,20.4,6.0,30.59,ESE,102,0.0,1.0,53,0.00,,,0.00,Wunderground v.1.15,2013-01-25 02:08:00,
2013-01-24 21:10:00,20.4,6.0,30.59,East,98,0.0,1.0,53,0.00,,,0.00,Wunderground v.1.15,2013-01-25 02:10:00,
2013-01-24 21:14:00,20.4,6.0,30.59,ESE,103,0.0,1.0,53,0.00,,,0.00,Wunderground v.1.15,2013-01-25 02:14:00,
2013-01-24 21:16:00,20.3,5.9,30.59,ESE,107,0.0,1.0,53,0.00,,,0.00,Wunderground v.1.15,2013-01-25 02:16:00,
2013-01-24 21:17:00,20.4,6.0,30.59,ESE,105,0.0,1.0,53,0.00,,,0.00,Wunderground v.1.15,2013-01-25 02:17:00,
2013-01-24 21:21:00,20.3,5.9,30.59,ESE,107,0.0,0.0,53,0.00,,,0.00,Wunderground v.1.15,2013-01-25 02:21:00,
2013-01-24 21:22:00,20.3,5.9,30.59,ESE,107,0.0,0.0,53,0.00,,,0.00,Wunderground v.1.15,2013-01-25 02:22:00,
2013-01-24 21:23:00,20.3,5.9,30.59,ESE,117,0.0,0.0,53,0.00,,,0.00,Wunderground v.1.15,2013-01-25 02:23:00,
2013-01-24 21:27:00,20.3,5.9,30.59,ESE,103,0.0,0.0,53,0.00,,,0.00,Wunderground v.1.15,2013-01-25 02:27:00,
2013-01-24 21:28:00,20.3,5.9,30.59,ESE,106,0.0,0.0,53,0.00,,,0.00,Wunderground v.1.15,2013-01-25 02:28:00,
2013-01-24 21:33:00,20.3,5.9,30.58,ESE,107,0.0,0.0,53,0.00,,,0.00,Wunderground v.1.15,2013-01-25 02:33:00,
2013-01-24 21:35:00,20.3,5.9,30.58,ESE,103,0.0,0.0,53,0.00,,,0.00,Wunderground v.1.15,2013-01-25 02:35:00,
2013-01-24 21:37:00,20.3,5.9,30.58,ESE,107,0.0,0.0,53,0.00,,,0.00,Wunderground v.1.15,2013-01-25 02:37:00,
2013-01-24 21:38:00,20.3,5.9,30.58,ESE,111,0.0,0.0,53,0.00,,,0.00,Wunderground v.1.15,2013-01-25 02:38:00,
2013-01-24 21:42:00,20.3,5.9,30.58,ESE,109,0.0,0.0,53,0.00,,,0.00,Wunderground v.1.15,2013-01-25 02:42:00,
2013-01-24 21:43:00,20.3,5.9,30.58,ESE,106,0.0,1.0,53,0.00,,,0.00,Wunderground v.1.15,2013-01-25 02:43:00,
2013-01-24 21:47:00,20.3,6.3,30.58,SE,130,0.0,2.0,54,0.00,,,0.00,Wunderground v.1.15,2013-01-25 02:47:00,
2013-01-24 21:48:00,20.3,6.3,30.58,ESE,102,0.0,2.0,54,0.00,,,0.00,Wunderground v.1.15,2013-01-25 02:48:00,
2013-01-24 21:49:00,20.3,6.3,30.58,ESE,103,0.0,2.0,54,0.00,,,0.00,Wunderground v.1.15,2013-01-25 02:49:00,
2013-01-24 21:52:00,20.3,6.3,30.58,East,91,0.0,1.0,54,0.00,,,0.00,Wunderground v.1.15,2013-01-25 02:52:00,
2013-01-24 21:53:00,20.3,6.3,30.58,East,100,0.0,1.0,54,0.00,,,0.00,Wunderground v.1.15,2013-01-25 02:53:00,
2013-01-24 21:54:00,20.3,6.3,30.58,East,99,0.0,1.0,54,0.00,,,0.00,Wunderground v.1.15,2013-01-25 02:54:00,
2013-01-24 21:59:00,20.4,6.4,30.58,ESE,109,0.0,1.0,54,0.00,,,0.00,Wunderground v.1.15,2013-01-25 02:59:00,
2013-01-24 22:00:00,20.4,6.4,30.58,ESE,109,0.0,1.0,54,0.00,,,0.00,Wunderground v.1.15,2013-01-25 03:00:00,
2013-01-24 22:01:00,20.4,6.4,30.58,ESE,107,0.0,5.0,54,0.00,,,0.00,Wunderground v.1.15,2013-01-25 03:01:00,
2013-01-24 22:03:00,20.4,6.8,30.59,ESE,117,0.0,5.0,55,0.00,,,0.00,Wunderground v.1.15,2013-01-25 03:03:00,
2013-01-24 22:05:00,20.4,6.4,30.59,ESE,106,0.0,5.0,54,0.00,,,0.00,Wunderground v.1.15,2013-01-25 03:05:00,
2013-01-24 22:07:00,20.4,6.8,30.59,SE,139,0.0,5.0,55,0.00,,,0.00,Wunderground v.1.15,2013-01-25 03:07:00,
2013-01-24 22:09:00,20.5,6.9,30.58,ESE,108,0.0,5.0,55,0.00,,,0.00,Wunderground v.1.15,2013-01-25 03:09:00,
2013-01-24 22:10:00,20.5,6.9,30.59,ESE,104,0.0,5.0,55,0.00,,,0.00,Wunderground v.1.15,2013-01-25 03:10:00,
2013-01-24 22:13:00,20.5,6.9,30.58,ESE,105,0.0,5.0,55,0.00,,,0.00,Wunderground v.1.15,2013-01-25 03:13:00,
2013-01-24 22:15:00,20.5,6.9,30.58,ESE,102,0.0,5.0,55,0.00,,,0.00,Wunderground v.1.15,2013-01-25 03:15:00,
2013-01-24 22:17:00,20.6,7.0,30.58,ESE,102,0.0,5.0,55,0.00,,,0.00,Wunderground v.1.15,2013-01-25 03:17:00,
2013-01-24 22:18:00,20.5,6.9,30.58,ESE,102,0.0,5.0,55,0.00,,,0.00,Wunderground v.1.15,2013-01-25 03:18:00,
2013-01-24 22:21:00,20.5,6.5,30.58,ESE,110,0.0,5.0,54,0.00,,,0.00,Wunderground v.1.15,2013-01-25 03:21:00,
2013-01-24 22:23:00,20.5,6.5,30.58,ESE,106,0.0,5.0,54,0.00,,,0.00,Wunderground v.1.15,2013-01-25 03:23:00,
2013-01-24 22:27:00,20.6,7.0,30.58,ESE,119,0.0,5.0,55,0.00,,,0.00,Wunderground v.1.15,2013-01-25 03:27:00,
2013-01-24 22:28:00,20.6,7.0,30.58,East,96,0.0,5.0,55,0.00,,,0.00,Wunderground v.1.15,2013-01-25 03:28:00,
2013-01-24 22:32:00,20.6,7.0,30.58,ESE,106,0.0,5.0,55,0.00,,,0.00,Wunderground v.1.15,2013-01-25 03:32:00,
2013-01-24 22:33:00,20.6,6.6,30.57,ESE,104,0.0,5.0,54,0.00,,,0.00,Wunderground v.1.15,2013-01-25 03:33:00,
2013-01-24 22:39:00,20.6,7.0,30.57,ESE,103,0.0,5.0,55,0.00,,,0.00,Wunderground v.1.15,2013-01-25 03:39:00,
2013-01-24 22:41:00,20.6,7.0,30.57,ESE,105,0.0,5.0,55,0.00,,,0.00,Wunderground v.1.15,2013-01-25 03:41:00,
2013-01-24 22:42:00,20.6,7.0,30.57,East,101,0.0,5.0,55,0.00,,,0.00,Wunderground v.1.15,2013-01-25 03:42:00,
2013-01-24 22:45:00,20.6,7.4,30.57,ESE,111,0.0,5.0,56,0.00,,,0.00,Wunderground v.1.15,2013-01-25 03:45:00,
2013-01-24 22:47:00,20.6,7.0,30.57,ESE,111,0.0,5.0,55,0.00,,,0.00,Wunderground v.1.15,2013-01-25 03:47:00,
2013-01-24 22:50:00,20.6,7.4,30.57,ESE,107,0.0,5.0,56,0.00,,,0.00,Wunderground v.1.15,2013-01-25 03:50:00,
2013-01-24 22:52:00,20.6,7.0,30.57,ESE,122,0.0,5.0,55,0.00,,,0.00,Wunderground v.1.15,2013-01-25 03:52:00,
2013-01-24 22:53:00,20.7,7.5,30.56,East,101,1.0,5.0,56,0.00,,,0.00,Wunderground v.1.15,2013-01-25 03:53:00,
2013-01-24 22:54:00,20.7,7.5,30.56,ESE,107,1.0,5.0,56,0.00,,,0.00,Wunderground v.1.15,2013-01-25 03:54:00,
2013-01-24 22:57:00,20.7,7.1,30.56,East,94,1.0,5.0,55,0.00,,,0.00,Wunderground v.1.15,2013-01-25 03:57:00,
2013-01-24 22:58:00,20.7,7.5,30.56,ESE,111,1.0,5.0,56,0.00,,,0.00,Wunderground v.1.15,2013-01-25 03:58:00,
2013-01-24 23:00:00,20.7,7.5,30.56,ESE,104,1.0,1.0,56,0.00,,,0.00,Wunderground v.1.15,2013-01-25 04:00:00,
2013-01-24 23:04:00,20.7,7.5,30.56,ESE,105,1.0,3.0,56,0.00,,,0.00,Wunderground v.1.15,2013-01-25 04:04:00,
2013-01-24 23:06:00,20.8,7.6,30.56,East,100,1.0,3.0,56,0.00,,,0.00,Wunderground v.1.15,2013-01-25 04:06:00,
2013-01-24 23:07:00,20.8,7.6,30.56,ESE,113,1.0,3.0,56,0.00,,,0.00,Wunderground v.1.15,2013-01-25 04:07:00,
2013-01-24 23:08:00,20.8,7.9,30.56,ESE,109,1.0,3.0,57,0.00,,,0.00,Wunderground v.1.15,2013-01-25 04:08:00,
2013-01-24 23:10:00,20.8,7.6,30.56,East,100,1.0,1.0,56,0.00,,,0.00,Wunderground v.1.15,2013-01-25 04:10:00,
2013-01-24 23:12:00,20.8,7.6,30.56,East,101,0.0,1.0,56,0.00,,,0.00,Wunderground v.1.15,2013-01-25 04:12:00,
2013-01-24 23:16:00,20.8,7.9,30.56,ESE,107,0.0,2.0,57,0.00,,,0.00,Wunderground v.1.15,2013-01-25 04:16:00,
2013-01-24 23:18:00,20.8,7.6,30.55,ESE,120,0.0,2.0,56,0.00,,,0.00,Wunderground v.1.15,2013-01-25 04:18:00,
2013-01-24 23:19:00,20.8,7.9,30.55,East,81,1.0,1.0,57,0.00,,,0.00,Wunderground v.1.15,2013-01-25 04:19:00,
2013-01-24 23:20:00,20.8,7.6,30.55,ESE,109,1.0,1.0,56,0.00,,,0.00,Wunderground v.1.15,2013-01-25 04:20:00,
2013-01-24 23:25:00,20.9,7.6,30.54,ESE,103,1.0,3.0,56,0.00,,,0.00,Wunderground v.1.15,2013-01-25 04:25:00,
2013-01-24 23:27:00,20.9,7.6,30.54,SE,126,1.0,3.0,56,0.00,,,0.00,Wunderground v.1.15,2013-01-25 04:27:00,
2013-01-24 23:31:00,21.0,7.7,30.55,ESE,109,1.0,1.0,56,0.00,,,0.00,Wunderground v.1.15,2013-01-25 04:31:00,
2013-01-24 23:33:00,21.0,7.7,30.55,ESE,119,1.0,1.0,56,0.00,,,0.00,Wunderground v.1.15,2013-01-25 04:33:00,
2013-01-24 23:35:00,21.0,8.1,30.55,East,99,1.0,1.0,57,0.00,,,0.00,Wunderground v.1.15,2013-01-25 04:35:00,
2013-01-24 23:36:00,21.0,7.7,30.55,SE,143,0.0,1.0,56,0.00,,,0.00,Wunderground v.1.15,2013-01-25 04:36:00,
2013-01-24 23:40:00,21.0,7.7,30.56,ESE,115,0.0,1.0,56,0.00,,,0.00,Wunderground v.1.15,2013-01-25 04:40:00,
2013-01-24 23:41:00,21.0,7.7,30.55,ESE,104,0.0,1.0,56,0.00,,,0.00,Wunderground v.1.15,2013-01-25 04:41:00,
2013-01-24 23:43:00,21.0,7.7,30.56,ESE,122,1.0,1.0,56,0.00,,,0.00,Wunderground v.1.15,2013-01-25 04:43:00,
2013-01-24 23:45:00,21.0,7.7,30.55,ESE,108,1.0,1.0,56,0.00,,,0.00,Wunderground v.1.15,2013-01-25 04:45:00,
2013-01-24 23:49:00,21.1,7.8,30.54,ESE,113,1.0,1.0,56,0.00,,,0.00,Wunderground v.1.15,2013-01-25 04:49:00,
2013-01-24 23:50:00,21.1,8.2,30.54,ESE,105,1.0,1.0,57,0.00,,,0.00,Wunderground v.1.15,2013-01-25 04:50:00,
2013-01-24 23:51:00,21.1,8.2,30.54,East,98,1.0,1.0,57,0.00,,,0.00,Wunderground v.1.15,2013-01-25 04:51:00,
2013-01-24 23:52:00,21.1,8.2,30.54,ESE,103,1.0,1.0,57,0.00,,,0.00,Wunderground v.1.15,2013-01-25 04:52:00,
2013-01-24 23:56:00,21.1,7.8,30.54,ESE,111,1.0,4.0,56,0.00,,,0.00,Wunderground v.1.15,2013-01-25 04:56:00,
2013-01-24 23:57:00,21.0,7.7,30.54,SE,124,1.0,4.0,56,0.00,,,0.00,Wunderground v.1.15,2013-01-25 04:57:00,